User: anonymous   Login
Location: Camp at the Woods
(43.2055°N, 93.0905°W)
Time: 06:21:46
(UTC+00:00)
Language:

Cosmos 1943 Rocket - Orbit

View from above orbital plane
View from above orbital plane
View from above satellite
View from above satellite

Ground track
Ground track

The orbit data is extracted from the following two-line orbital elements,

1 19120U 88039B   24112.36037928  .00000236  00000-0  13471-3 0  9999
2 19120  71.0135  81.6841 0023622 310.3620  49.5442 14.19395755860843
Epoch (UTC): 21 April 2024 08:38:56
Eccentricity: 0.0023622
inclination: 71.0135°
perigee height: 810 km
apogee height: 844 km
right ascension of ascending node: 81.6841°
argument of perigee: 310.3620°
revolutions per day: 14.19395755
mean anomaly at epoch: 49.5442°
orbit number at epoch: 86084

The dashed part of the orbit path shows where the satellite is in the earth's shadow,  

DLR